This is the latest recevied weather packets stored in our database for station/object XW7RMR. If no packets are shown the sender has not sent any weather packets the latest 10 day(s).
| Time | Temp. | Humidity | Pressure | Rain* | Wind** | Luminosity | Snow |
|---|---|---|---|---|---|---|---|
| 1777859918 | 32.22° C | 23% | 1004.9 hPa | 0 mm | - | 106 W/m² | - |
| 1777859614 | 32.78° C | 23% | 1005.1 hPa | 0 mm | - | 117 W/m² | - |
| 1777859311 | 32.78° C | 21% | 1005.1 hPa | 0 mm | - | 129 W/m² | - |
| 1777859006 | 32.78° C | 22% | 1005.1 hPa | 0 mm | - | 141 W/m² | - |
| 1777858705 | 32.78° C | 22% | 1005 hPa | 0 mm | - | 153 W/m² | - |
| 1777858402 | 32.78° C | 22% | 1005.2 hPa | 0 mm | - | 166 W/m² | - |
| 1777858099 | 32.78° C | 22% | 1005.1 hPa | 0 mm | - | 179 W/m² | - |
| 1777857796 | 32.78° C | 22% | 1005.2 hPa | 0 mm | - | 194 W/m² | - |
| 1777857494 | 32.78° C | 23% | 1005.2 hPa | 0 mm | - | 209 W/m² | - |
| 1777857190 | 32.78° C | 21% | 1005.1 hPa | 0 mm | - | 225 W/m² | - |
| 1777856886 | 32.78° C | 21% | 1005.3 hPa | 0 mm | - | 240 W/m² | - |
| 1777856581 | 32.78° C | 23% | 1005.3 hPa | 0 mm | - | 254 W/m² | - |
| 1777856279 | 33.33° C | 22% | 1005.3 hPa | 0 mm | - | 265 W/m² | - |
| 1777855975 | 32.78° C | 23% | 1005.4 hPa | 0 mm | - | 279 W/m² | - |
| 1777855673 | 32.78° C | 21% | 1005.5 hPa | 0 mm | - | 293 W/m² | - |
| 1777855370 | 32.78° C | 22% | 1005.6 hPa | 0 mm | - | 305 W/m² | - |
| 1777855066 | 32.78° C | 23% | 1005.4 hPa | 0 mm | - | 321 W/m² | - |
| 1777854764 | 32.78° C | 22% | 1005.6 hPa | 0 mm | - | 336 W/m² | - |
| 1777854460 | 33.33° C | 22% | 1005.7 hPa | 0 mm | - | 352 W/m² | - |
| 1777854157 | 32.78° C | 23% | 1005.7 hPa | 0 mm | - | 369 W/m² | - |
| 1777853855 | 32.78° C | 25% | 1005.6 hPa | 0 mm | - | 384 W/m² | - |
| 1777853552 | 32.78° C | 23% | 1005.7 hPa | 0 mm | - | 402 W/m² | - |
| 1777853248 | 33.33° C | 24% | 1005.7 hPa | 0 mm | - | 417 W/m² | - |
| 1777852945 | 33.33° C | 23% | 1005.5 hPa | 0 mm | - | 434 W/m² | - |
| 1777852644 | 32.78° C | 23% | 1005.6 hPa | 0 mm | - | 447 W/m² | - |
* Rain latest hour (hover to see other rain measurements)
** Current wind speed in m/s (hover to see current wind gust speed)